TimeMST,TemperatureF,Dew PointF,Humidity,Sea Level PressureIn,VisibilityMPH,Wind Direction,Wind SpeedMPH,Gust SpeedMPH,PrecipitationIn,Events,Conditions,WindDirDegrees,DateUTC
12:53 AM,42.1,27.0,55,29.90,10.0,WNW,12.7,-,N/A,,Clear,300,2014-01-26 07:53:00
1:53 AM,41.0,27.0,57,29.88,10.0,NW,15.0,-,N/A,,Clear,320,2014-01-26 08:53:00
2:53 AM,41.0,27.0,57,29.87,10.0,NW,16.1,-,N/A,,Overcast,310,2014-01-26 09:53:00
3:53 AM,42.1,27.0,55,29.84,10.0,Variable,3.5,-,N/A,,Overcast,0,2014-01-26 10:53:00
4:53 AM,43.0,27.0,53,29.82,10.0,NW,13.8,-,N/A,,Overcast,320,2014-01-26 11:53:00
5:53 AM,42.1,26.1,53,29.84,10.0,NNW,25.3,32.2,N/A,,Overcast,330,2014-01-26 12:53:00
6:53 AM,37.0,30.9,79,29.89,10.0,NNW,24.2,39.1,0.00,Rain,Light Rain,330,2014-01-26 13:53:00
7:08 AM,36.0,32.0,86,29.87,10.0,NW,21.9,-,0.00,Rain,Light Rain,320,2014-01-26 14:08:00
7:41 AM,35.1,32.0,89,29.88,10.0,NW,18.4,-,0.02,Rain,Rain,320,2014-01-26 14:41:00
7:53 AM,34.0,30.9,89,29.92,4.0,NW,21.9,-,0.04,Snow,Light Snow,320,2014-01-26 14:53:00
8:04 AM,33.1,30.9,92,29.89,2.0,NW,17.3,-,0.02,Snow,Light Snow,320,2014-01-26 15:04:00
8:15 AM,33.1,30.9,92,29.89,1.2,NW,19.6,-,0.04,Snow,Light Snow,310,2014-01-26 15:15:00
8:46 AM,33.1,30.9,92,29.91,1.2,NW,23.0,-,0.09,Snow,Light Snow,310,2014-01-26 15:46:00
8:53 AM,33.1,30.9,92,29.96,0.5,NW,36.8,44.9,0.10,Fog-Snow,Snow,310,2014-01-26 15:53:00
9:11 AM,33.1,30.9,92,29.93,1.0,NW,27.6,39.1,0.01,Snow,Light Snow,320,2014-01-26 16:11:00
9:17 AM,33.1,30.0,89,29.93,2.0,NW,32.2,36.8,0.01,Snow,Light Snow,320,2014-01-26 16:17:00
9:28 AM,33.1,30.9,92,29.94,1.2,NW,25.3,39.1,0.02,Snow,Light Snow,310,2014-01-26 16:28:00
9:39 AM,33.1,30.0,89,29.95,1.5,NW,26.5,38.0,0.02,Snow,Light Snow,310,2014-01-26 16:39:00
9:53 AM,33.1,30.0,89,30.01,1.2,NW,28.8,39.1,0.02,Snow,Light Snow,310,2014-01-26 16:53:00
10:04 AM,33.1,30.0,89,29.96,0.8,NW,26.5,38.0,0.00,Snow,Light Snow,310,2014-01-26 17:04:00
10:20 AM,32.0,28.9,88,29.98,1.0,NW,35.7,43.7,0.00,Snow,Light Snow,310,2014-01-26 17:20:00
10:44 AM,32.0,28.9,88,30.00,0.8,NW,29.9,41.4,0.00,Snow,Light Snow,320,2014-01-26 17:44:00
10:53 AM,32.0,28.9,88,30.06,0.8,NW,27.6,39.1,0.00,Snow,Light Snow,320,2014-01-26 17:53:00
10:57 AM,32.0,28.9,88,30.00,1.0,NW,26.5,36.8,0.00,Snow,Light Snow,320,2014-01-26 17:57:00
11:09 AM,32.0,28.9,88,30.01,2.0,NW,31.1,40.3,0.00,Snow,Light Snow,320,2014-01-26 18:09:00
11:18 AM,32.0,28.9,88,30.03,1.8,NNW,24.2,36.8,0.00,Snow,Light Snow,330,2014-01-26 18:18:00
11:25 AM,28.9,27.0,92,30.04,1.0,North,21.9,32.2,0.00,Snow,Light Snow,360,2014-01-26 18:25:00
11:46 AM,27.0,24.1,89,30.08,1.0,North,19.6,27.6,0.00,Snow,Light Snow,10,2014-01-26 18:46:00
11:48 AM,26.6,24.8,93,30.08,0.8,North,23.0,28.8,0.00,Snow,Light Snow,10,2014-01-26 18:48:00
11:53 AM,26.1,23.0,88,30.17,0.8,North,20.7,28.8,0.00,Snow,Light Snow,360,2014-01-26 18:53:00
12:00 PM,26.1,23.0,88,30.10,0.8,North,19.6,25.3,0.00,Snow,Light Snow,350,2014-01-26 19:00:00
12:12 PM,25.0,21.9,88,30.11,0.5,NW,32.2,38.0,0.01,Fog-Snow,Snow,320,2014-01-26 19:12:00
12:29 PM,25.0,21.0,85,30.12,0.5,NW,27.6,38.0,0.01,Fog-Snow,Snow,320,2014-01-26 19:29:00
12:44 PM,24.1,19.9,84,30.13,1.0,NW,26.5,35.7,0.01,Snow,Light Snow,320,2014-01-26 19:44:00
12:53 PM,24.1,19.9,84,30.24,1.8,NNW,27.6,33.4,0.01,Snow,Light Snow,330,2014-01-26 19:53:00
1:02 PM,24.1,19.0,81,30.15,3.0,NNW,24.2,33.4,0.00,Snow,Light Snow,340,2014-01-26 20:02:00
1:11 PM,24.1,17.1,75,30.15,6.0,NNW,23.0,31.1,0.00,Snow,Light Snow,330,2014-01-26 20:11:00
1:30 PM,21.9,16.0,78,30.16,7.0,NNW,27.6,33.4,0.00,,Overcast,330,2014-01-26 20:30:00
1:53 PM,21.9,16.0,78,30.27,9.0,NNW,23.0,-,0.00,,Overcast,330,2014-01-26 20:53:00
2:53 PM,19.9,12.9,74,30.29,10.0,NNW,21.9,-,0.00,,Overcast,330,2014-01-26 21:53:00
3:53 PM,19.0,10.0,68,30.31,10.0,NNW,16.1,-,N/A,,Overcast,330,2014-01-26 22:53:00
4:49 PM,17.6,8.6,68,30.21,10.0,NNW,13.8,-,N/A,,Overcast,330,2014-01-26 23:49:00
4:53 PM,17.1,9.0,71,30.32,10.0,NNW,15.0,-,N/A,,Overcast,340,2014-01-26 23:53:00
5:49 PM,15.8,8.6,73,30.23,10.0,NW,6.9,-,N/A,,Overcast,310,2014-01-27 00:49:00
5:53 PM,16.0,8.1,71,30.35,10.0,North,6.9,-,N/A,,Overcast,350,2014-01-27 00:53:00
6:53 PM,15.1,6.1,68,30.38,10.0,NNW,4.6,-,N/A,,Overcast,330,2014-01-27 01:53:00
7:53 PM,15.1,7.0,70,30.39,10.0,West,3.5,-,N/A,,Overcast,260,2014-01-27 02:53:00
8:53 PM,15.1,7.0,70,30.39,10.0,WNW,8.1,-,N/A,,Overcast,290,2014-01-27 03:53:00
9:53 PM,15.1,6.1,68,30.38,10.0,NNW,13.8,-,N/A,,Mostly Cloudy,330,2014-01-27 04:53:00
10:53 PM,15.1,5.0,64,30.35,10.0,WNW,12.7,-,N/A,,Clear,300,2014-01-27 05:53:00
11:53 PM,12.9,5.0,71,30.39,10.0,Variable,3.5,-,N/A,,Clear,0,2014-01-27 06:53:00